Regional Weather Roundup
Issued by NWS Charleston, SC

Current Version | Previous Version | Text Only | Print | Product List | Glossary Off
Versions: 1 2 3 4 5 6 7 8 9 10 11 12 13 14 15 16 17 18 19 20 21 22 23 24 25 26 27 28 29 30 31 32 33 34 35 36 37 38 39 40 41 42 43 44 45 46 47 48 49 50
000 ASUS42 KCHS 240912 RWRCHS REGIONAL WEATHER ROUNDUP NATIONAL WEATHER SERVICE CHARLESTON SC 500 AM EDT FRI MAR 24 2017 NOTE: "FAIR" INDICATES FEW OR NO CLOUDS BELOW 12,000 FEET WITH NO SIGNIFICANT WEATHER AND/OR OBSTRUCTIONS TO VISIBILITY. NOT ALL STATIONS ARE QUALITY CONTROLLED. USE DATA WITH CAUTION... ESPECIALLY DEWPOINT OBSERVATIONS. SCZ027-030-031-034>040-042>050-241000- ...SOUTHEAST SOUTH CAROLINA... CITY SKY/WX TMP DP RH WIND PRES REMARKS N CHARLESTON PTCLDY 49 45 86 NE9 30.45S WATERFRONT PRK N/A 53 51 93 N7 30.44S JOHNS ISLAND FAIR 52 50 93 N3 30.45S PINOPOLIS N/A 48 45 87 NE7 30.39R MONCKS CORNER FAIR 45 39 81 CALM 30.47S SUMMERVILLE FAIR 43 41 93 NE3 30.47S BEAUFORT MCAS CLEAR 48 46 93 N6 30.44S BEAUFORT ARPT FAIR 50 46 87 N6 30.43S HILTON HEAD IS CLOUDY N/A N/A N/A N8 30.44R WALTERBORO SUNNY 46 43 87 NE3 30.47S ALLENDALE PTSUNNY 46 39 76 CALM 30.45S ...SOUTHERN MIDLANDS AND PEE DEE... CITY SKY/WX TMP DP RH WIND PRES REMARKS GEORGETOWN FAIR 46 46 100 E5 30.48S KINGSTREE FAIR 39 34 81 CALM 30.49S ORANGEBURG CLOUDY 46 37 71 NE6 30.47F BARNWELL CLOUDY 48 41 76 CALM 30.46F AIKEN CLOUDY 46 36 66 E5 30.48F MANNING FAIR 41 36 81 CALM 30.48F COLUMBIA CLOUDY 49 36 61 E5 30.47F SUMTER CLOUDY 44 37 76 NE6 30.46F FLORENCE PTCLDY 39 34 82 NE5 30.50F WCI 36 MYRTLE BEACH PTCLDY 43 38 82 N7 30.50S N MYRTLE BEACH PTCLDY 41 38 89 NE7 30.49F $$ GAZ063-065-086>088-099>101-113>116-118-119-134>141-150-241000- ...SOUTHEAST GEORGIA... CITY SKY/WX TMP DP RH WIND PRES REMARKS SAVANNAH ARPT CLEAR 47 42 83 N7 30.43F HUNTER AAF CLEAR 51 50 96 CALM 30.40S FORT STEWART CLEAR 49 46 87 N3 30.40S STATESBORO CLEAR 48 44 85 CALM 30.44F SYLVANIA PTSUNNY N/A N/A N/A E3 30.45S CLAXTON FAIR N/A N/A N/A N3 30.44S ...CSRA...CENTRAL AND FAR SOUTHEAST GEORGIA... CITY SKY/WX TMP DP RH WIND PRES REMARKS THOMSON CLOUDY 51 36 56 SE5 30.50F AUGUSTA-BUSH CLOUDY 51 38 60 CALM 30.46F AUGUSTA-DANIEL CLOUDY 52 32 46 E6 30.46F SWAINSBORO FAIR 52 45 76 E7 30.44F VIDALIA CLEAR 52 46 82 NE7 30.43S EASTMAN FAIR 53 43 69 CALM 30.45S HAZLEHURST FAIR 51 51 100 E6 30.40F ALMA CLOUDY 50 49 96 NE3 30.40S WAYCROSS CLEAR 55 55 100 NE3 30.40R JESUP FAIR 52 48 87 NE5 30.41S BAXLEY MOCLDY 52 52 100 NE3 30.41S BRUNSWICK FOG 55 55 100 CALM 30.40R VSB 1/2 SAINT SIMONS MOCLDY 59 54 83 NE5 30.38S $$ SCZ027-028-034-036>038-045-046-048>050-GAZ119-141-241000- ...LAKE AND SUPPLEMENTAL COASTAL OBSERVATIONS... STATION/POSITION TIME TEMP WIND PRES WAVE SWELL AIR SEA DIR/SP/G HT/PER HT/PER/DIR (UTC) (F) (DEG/KT/KT) (MB) (FT/S) (FT/S/D) WINYAH BAY 0745 55 70/ 9 1032.0 LAKE MURRAY 0820 47 40/ 1/ 3 1031.5 ACE BASIN NERRS NOT AVBL FORT PULASKI 0842 57 61 40/ 9/ 10 1030.1F SAPELO ISLAND 0800 58 60/ 3 1029.0 $$ ANZ835-935-AMZ111-154-330-350-352-354-370-450-454-472-241000- ...C-MAN AND BUOY OBSERVATIONS... STATION/POSITION TIME TEMP WIND PRES WAVE SWELL AIR SEA DIR/SP/G HT/PER HT/PER/DIR (UTC) (F) (DEG/KT/KT) (MB) (FT/S) (FT/S/D) BUOY 41004 0850 66 71 120/ 12/ 16 1030.1S 5/ 6 3/ 80/ 6 BUOY 41008 0750 64 62 100/ 10/ 12 1028.6 6/ 7 5/110/ 7 FOLLY BEACH CMAN 0800 58 50/ 15/ 16 1031.2F CAPERS NEARSHORE 0808 58 60/ 14/ 17 1030.5F FRIPP NEARSHORE 0808 59 59 60/ 12/ 16 1030.0F STATION/POSITION TIME TEMP WIND PRES WAVE SWELL AIR SEA DIR/SP/G HT/PER HT/PER/DIR (UTC) (F) (DEG/KT/KT) (MB) (FT/S) (FT/S/D) 5E ST. MARYS GA 0830 63 N/A 6/ 7 2/ 80/11 FRYING PAN BUOY 0850 64 70 120/ 8/ 14 1031.8R 4/ 8 3/ 80/ 8 BUOY 41025 0850 57 74 160/ 10/ 14 1033.5S 7/11 7/ 30/11 CAPE LOOKOUT NC 0800 46 10/ 13/ 15 1033.2F BUOY 41002 0850 62 73 60/ 16/ 21 1031.1F 6/10 5/350/10 BUOY 41010 NOT AVBL ST AUGUSTINE FL 0900 66 65 100/ 15/ 17 1028.1S $$

USA.gov is the U.S. government's official web portal to all federal, state and local government web resources and services.